Selinsgrove, PA

12:55 PM EDT on June 22, 2017 (GMT -0400)
Penn Valley

Weather History for KSEG - February, 2012

Change the Weather History Date:

Wednesday, February 29, 2012

  Actual Average (KIPT) Record (KIPT)
Temperature  
Mean Temperature 36 °F -  
Max Temperature 42 °F 41 °F 64 °F (1976)
Min Temperature 30 °F 23 °F 6 °F (1980)
Degree Days  
Heating Degree Days 29    
Moisture  
Dew Point 35 °F    
Average Humidity 89    
Maximum Humidity 100    
Minimum Humidity 60    
Precipitation  
Precipitation 0.54 in - - ()
Sea Level Pressure  
Sea Level Pressure 29.98 in    
Wind  
Wind Speed 2 mph (ESE)    
Max Wind Speed 9 mph    
Max Gust Speed -    
Visibility 6 miles    
Events Rain    
Averages and records for this station are not official NWS values.
T = Trace of Precipitation, MM = Missing Value Source: NWS Daily Summary

Daily Weather History Graph

Daily Weather History Graph

Search for Another Location

Airport or City:

Trip Planner

Search our weather history database for the weather conditions in past years. The results will help you decide how hot, cold, wet, or windy it might be!

Date:

Astronomy

Feb. 29, 2012 Rise Set
Actual Time 6:42 AM EST 5:58 PM EST
Civil Twilight 6:14 AM EST 6:25 PM EST
Nautical Twilight 5:43 AM EST 6:57 PM EST
Astronomical Twilight 5:11 AM EST 7:29 PM EST
Moon 10:28 AM EST (2/29) 12:46 AM EST (2/29)
Length of Visible Light 12h 10m
Length of Day
11h 15m
Waxing Crescent, 47% of the Moon is Illuminated
Feb 29
Waxing Crescent
Feb 29
First Quarter
Mar 8
Full
Mar 14
Last Quarter
Mar 22
New

Hourly Weather History & Observations

Time (EST) Temp. Windchill Dew Point Humidity Pressure Visibility Wind Dir Wind Speed Gust Speed Precip Events Conditions
12:53 AM 30.0 °F - 25.0 °F 82% 30.31 in 10.0 mi Calm Calm - N/A   Partly Cloudy
1:53 AM 30.9 °F - 26.1 °F 82% 30.29 in 10.0 mi Calm Calm - N/A   Mostly Cloudy
2:53 AM 32.0 °F - 26.1 °F 79% 30.25 in 10.0 mi Calm Calm - N/A   Partly Cloudy
3:53 AM 33.1 °F 30.0 °F 27.0 °F 78% 30.22 in 10.0 mi North 3.5 mph - N/A   Mostly Cloudy
4:53 AM 34.0 °F - 27.0 °F 75% 30.20 in 10.0 mi Calm Calm - N/A   Overcast
5:53 AM 35.1 °F - 28.0 °F 76% 30.18 in 10.0 mi Calm Calm - N/A   Overcast
6:53 AM 39.0 °F 35.7 °F 26.1 °F 60% 30.15 in 10.0 mi ESE 4.6 mph - 0.00 in Rain Light Rain
7:53 AM 39.0 °F - 28.0 °F 65% 30.15 in 10.0 mi Calm Calm - 0.00 in   Overcast
8:53 AM 37.9 °F 35.5 °F 30.0 °F 73% 30.14 in 5.0 mi SE 3.5 mph - 0.02 in Rain Light Rain
9:35 AM 35.6 °F 31.7 °F 32.0 °F 87% 30.09 in 2.5 mi ESE 4.6 mph - 0.07 in Rain Rain
9:48 AM 35.6 °F - 33.8 °F 93% 30.08 in 3.0 mi Calm Calm - 0.09 in Rain Rain
9:53 AM 36.0 °F - 33.1 °F 89% 30.09 in 3.0 mi Calm Calm - 0.11 in Rain Rain
10:03 AM 35.6 °F - 33.8 °F 93% 30.07 in 2.5 mi Calm Calm - 0.03 in Rain Rain
10:18 AM 37.4 °F 32.8 °F 33.8 °F 87% 30.05 in 3.0 mi Variable 5.8 mph - 0.07 in Rain Rain
10:53 AM 37.0 °F 34.5 °F 34.0 °F 89% 30.05 in 4.0 mi East 3.5 mph - 0.12 in Rain Rain
11:53 AM 39.0 °F 35.7 °F 36.0 °F 89% 30.01 in 6.0 mi Variable 4.6 mph - 0.05 in Rain Light Rain
12:33 PM 39.2 °F 35.9 °F 37.4 °F 93% 29.95 in 5.0 mi SE 4.6 mph - 0.01 in Rain Light Rain
12:53 PM 39.9 °F 37.8 °F 37.0 °F 89% 29.94 in 3.0 mi Variable 3.5 mph - 0.01 in Rain Light Rain
1:37 PM 39.2 °F - 37.4 °F 93% 29.95 in 1.8 mi Calm Calm - 0.03 in Rain Light Rain
1:53 PM 39.9 °F - 39.0 °F 97% 29.94 in 1.5 mi Calm Calm - 0.09 in Rain Rain
2:00 PM 39.2 °F 35.0 °F 37.4 °F 93% 29.90 in 2.0 mi ESE 5.8 mph - 0.03 in Rain Heavy Rain
2:08 PM 39.2 °F 35.9 °F 39.2 °F 100% 29.88 in 1.8 mi East 4.6 mph - 0.07 in Rain Heavy Rain
2:19 PM 39.2 °F - 39.2 °F 100% 29.90 in 2.5 mi Calm Calm - 0.08 in Rain Light Rain
2:43 PM 39.2 °F - 39.2 °F 100% 29.89 in 4.0 mi Calm Calm - 0.10 in Rain Light Rain
2:53 PM 39.9 °F - 39.0 °F 97% 29.89 in 2.0 mi Calm Calm - 0.11 in Rain Light Rain
3:13 PM 39.2 °F - 39.2 °F 100% 29.86 in 3.0 mi Calm Calm - 0.01 in Rain Light Rain
3:53 PM 41.0 °F - 39.9 °F 96% 29.87 in 6.0 mi Calm Calm - 0.01 in   Overcast
4:53 PM 41.0 °F - 39.0 °F 93% 29.83 in 10.0 mi Calm Calm - N/A   Overcast
5:53 PM 42.1 °F - 39.0 °F 89% 29.84 in 10.0 mi Calm Calm - N/A   Overcast
6:53 PM 41.0 °F - 39.9 °F 96% 29.81 in 9.0 mi Calm Calm - N/A   Overcast
7:26 PM 41.0 °F 36.4 °F 39.2 °F 93% 29.79 in 9.0 mi SE 6.9 mph - N/A   Overcast
7:53 PM 41.0 °F 37.1 °F 39.9 °F 96% 29.78 in 8.0 mi SE 5.8 mph - N/A   Overcast
8:53 PM 41.0 °F 35.2 °F 39.0 °F 93% 29.76 in 7.0 mi SE 9.2 mph - N/A   Overcast
9:53 PM 41.0 °F 38.0 °F 39.0 °F 93% 29.73 in 9.0 mi Variable 4.6 mph - 0.00 in Rain Light Rain
10:53 PM 41.0 °F - 39.9 °F 96% 29.68 in 6.0 mi Calm Calm - 0.01 in Rain Light Rain
11:53 PM 39.9 °F - 39.9 °F 100% 29.64 in 4.0 mi Calm Calm - 0.01 in   Overcast